KOREASAT 5A

Last updated on Thu Nov 21 2024 00:02:43 GMT+0000 (Coordinated Universal Time)

1 42984U 17067A 24325.56095140 -.00000357 00000+0 00000+0 0 9998 2 42984 0.0110 318.2759 0002151 285.5169 131.3808 1.00270501 25772
UTC large
Height (km)
Speed (km/s)
/
Latitude / Longitude
Inclination (degrees)
Orbital Period (minutes)
Azimuth
Elevation
Range (km)
Doppler Factor

Next 0 passes for location: London (51.5072 / 0.1276)

Sorry there are no passes over London.